Change the Weather History Date:

Saturday, November 10, 2012

  Actual Average Record
Temperature  
Mean Temperature - -  
Max Temperature - 56 °F 75 °F (1999)
Min Temperature - 39 °F 24 °F (2000)
Moisture  
Dew Point -    
Average Humidity    
Maximum Humidity    
Minimum Humidity    
Precipitation  
Precipitation 0.00 in - - ()
Sea Level Pressure  
Sea Level Pressure 29.94 in    
Wind  
Wind Speed 19 mph (South)    
Max Wind Speed 26 mph    
Max Gust Speed 36 mph    
Visibility 10 miles    
Events      
Averages and records for this station are not official NWS values.
T = Trace of Precipitation, MM = Missing Value Source: NWS Daily Summary

Daily Weather History Graph

Daily Weather History Graph

Search for Another Location

Airport or City:

Trip Planner

Search our weather history database for the weather conditions in past years. The results will help you decide how hot, cold, wet, or windy it might be!

Date:

Astronomy

Nov. 10, 2012 Rise Set
Actual Time 6:50 AM CST 5:13 PM CST
Civil Twilight 6:23 AM CST 5:40 PM CST
Nautical Twilight 5:52 AM CST 6:11 PM CST
Astronomical Twilight 5:22 AM CST 6:41 PM CST
Moon 3:02 AM CST (11/10) 2:55 PM CST (11/10)
Length of Visible Light 11h 17m
Length of Day
10h 22m
Waning Crescent, 14% of the Moon is Illuminated
Nov 10
Waning Crescent
Nov 13
New
Nov 20
First Quarter
Nov 28
Full
Dec 6
Last Quarter

Hourly Weather History & Observations

Time (CST) Temp. Dew Point Humidity Pressure Visibility Wind Dir Wind Speed Gust Speed Precip Events Conditions
1:15 AM - - N/A% 29.97 in 10.0 mi South 17.3 mph 21.9 mph N/A   Clear
1:35 AM - - N/A% 29.97 in 10.0 mi South 15.0 mph - N/A   Clear
2:15 AM - - N/A% 29.97 in 10.0 mi South 15.0 mph 20.7 mph N/A   Clear
2:35 AM - - N/A% 29.96 in 10.0 mi South 16.1 mph - N/A   Clear
2:55 AM - - N/A% 29.97 in 10.0 mi South 18.4 mph - N/A   Clear
3:16 AM - - N/A% 29.96 in 10.0 mi South 17.3 mph 21.9 mph N/A   Clear
3:35 AM - - N/A% 29.97 in 10.0 mi South 18.4 mph 21.9 mph N/A   Clear
4:15 AM - - N/A% 29.97 in 10.0 mi South 15.0 mph 20.7 mph N/A   Clear
4:35 AM - - N/A% 29.98 in 10.0 mi South 15.0 mph 19.6 mph N/A   Clear
4:55 AM - - N/A% 29.98 in 10.0 mi South 12.7 mph - N/A   Clear
5:15 AM - - N/A% 29.99 in 10.0 mi South 13.8 mph - N/A   Clear
5:55 AM - - N/A% 29.99 in 10.0 mi South 20.7 mph - N/A   Clear
6:55 AM - - N/A% 30.01 in 10.0 mi South 11.5 mph - N/A   Clear
7:15 AM - - N/A% 30.01 in 10.0 mi South 10.4 mph 18.4 mph N/A   Clear
7:35 AM - - N/A% 30.01 in 10.0 mi South 21.9 mph 28.8 mph N/A   Clear
7:55 AM - - N/A% 30.01 in 10.0 mi South 23.0 mph 31.1 mph N/A   Clear
8:16 AM - - N/A% 30.02 in 10.0 mi South 24.2 mph 29.9 mph N/A   Clear
8:35 AM - - N/A% 30.02 in 10.0 mi South 25.3 mph 33.4 mph N/A   Clear
8:55 AM - - N/A% 30.03 in 10.0 mi South 24.2 mph 33.4 mph N/A   Clear
9:35 AM - - N/A% 30.02 in 10.0 mi South 21.9 mph 34.5 mph N/A   Partly Cloudy
9:55 AM - - N/A% 30.01 in 10.0 mi South 25.3 mph 35.7 mph N/A   Partly Cloudy
10:15 AM - - N/A% 30.01 in 10.0 mi South 24.2 mph 34.5 mph N/A   Partly Cloudy
10:35 AM - - N/A% 30.00 in 10.0 mi South 23.0 mph 34.5 mph N/A   Partly Cloudy
10:55 AM - - N/A% 30.00 in 10.0 mi South 26.5 mph 35.7 mph N/A   Clear
11:35 AM - - N/A% 29.98 in 10.0 mi South 23.0 mph 31.1 mph N/A   Clear
11:55 AM - - N/A% 29.96 in 10.0 mi South 23.0 mph 34.5 mph N/A   Clear
12:15 PM - - N/A% 29.95 in 10.0 mi South 25.3 mph 32.2 mph N/A   Clear
12:35 PM - - N/A% 29.94 in 10.0 mi South 24.2 mph 31.1 mph N/A   Clear
1:15 PM - - N/A% 29.92 in 10.0 mi South 26.5 mph 33.4 mph N/A   Clear
1:36 PM - - N/A% 29.91 in 10.0 mi South 23.0 mph 31.1 mph N/A   Clear
1:55 PM - - N/A% 29.90 in 10.0 mi South 23.0 mph 32.2 mph N/A   Clear
2:35 PM - - N/A% 29.89 in 10.0 mi South 21.9 mph 28.8 mph N/A   Clear
2:55 PM - - N/A% 29.89 in 10.0 mi South 21.9 mph 27.6 mph N/A   Clear
3:15 PM - - N/A% 29.88 in 10.0 mi SSE 20.7 mph 26.5 mph N/A   Clear
3:35 PM - - N/A% 29.87 in 10.0 mi SSE 20.7 mph 31.1 mph N/A   Clear
3:55 PM - - N/A% 29.88 in 10.0 mi South 25.3 mph 32.2 mph N/A   Clear
4:15 PM - - N/A% 29.88 in 10.0 mi South 18.4 mph 29.9 mph N/A   Clear
4:35 PM - - N/A% 29.88 in 10.0 mi South 21.9 mph 31.1 mph N/A   Clear
4:56 PM - - N/A% 29.88 in 10.0 mi South 18.4 mph 29.9 mph N/A   Clear
5:15 PM - - N/A% 29.87 in 10.0 mi SSE 16.1 mph 23.0 mph N/A   Clear
5:35 PM - - N/A% 29.87 in 10.0 mi SSE 18.4 mph 23.0 mph N/A   Clear
6:35 PM - - N/A% 29.90 in 10.0 mi SSE 19.6 mph 26.5 mph N/A   Clear
6:55 PM - - N/A% 29.90 in 10.0 mi South 18.4 mph 26.5 mph N/A   Clear
7:16 PM - - N/A% 29.89 in 10.0 mi SSE 18.4 mph 27.6 mph N/A   Clear
7:35 PM - - N/A% 29.90 in 10.0 mi SSE 19.6 mph 24.2 mph N/A   Clear
7:55 PM - - N/A% 29.89 in 10.0 mi SSE 19.6 mph 32.2 mph N/A   Clear
8:35 PM - - N/A% 29.89 in 10.0 mi SSE 17.3 mph 26.5 mph N/A   Clear
9:35 PM - - N/A% 29.88 in 10.0 mi SSE 17.3 mph 23.0 mph N/A   Clear
10:15 PM - - N/A% 29.87 in 10.0 mi South 17.3 mph 25.3 mph N/A   Clear
10:35 PM - - N/A% 29.88 in 10.0 mi South 18.4 mph 26.5 mph N/A   Clear
10:55 PM - - N/A% 29.87 in 10.0 mi South 19.6 mph 29.9 mph N/A   Clear
11:35 PM - - N/A% 29.85 in 10.0 mi South 17.3 mph 27.6 mph N/A   Clear
11:55 PM - - N/A% 29.86 in 10.0 mi South 15.0 mph 21.9 mph N/A   Clear